User: anonymous   Login
Location: Vancouver
(49.2500°N, 123.1330°W)
Time: 21:49:31
(UTC-08:00)
Language:

ERS-2 - Orbit

View from above orbital plane
View from above orbital plane
View from above satellite
View from above satellite

Ground track
Ground track

The orbit data is extracted from the following two-line orbital elements,

1 23560U 95021A   14353.56283988  .00012850  00000-0  73490-3 0  1936
2 23560 098.5455 215.7438 0004532 131.7940 228.3700 15.12828241 37267
Epoch (UTC): 19 December 2014 13:30:29
Eccentricity: 0.0004532
inclination: 98.5455°
perigee height: 524 km
apogee height: 531 km
right ascension of ascending node: 215.7438°
argument of perigee: 131.7940°
revolutions per day: 15.12828241
mean anomaly at epoch: 228.3700°
orbit number at epoch: 3726

The dashed part of the orbit path shows where the satellite is in the earth's shadow,  

DLR